Temp
51 54 54 56 54 54 52 42 31 47 50 34 33 32 34 36 37 41 38 40 40 39 40 37 37 38 44 51 49 43 44 42 36 42 50 51 50 42 37 31 29 32 29 32
51 56 55 54 53 55 46 33 33 45 46 30 32 33 34 35 35 36 35 34 38 40 34 31 36 40 45 48 48 42 45 38 33 36 39 45 39 40 38 35 33 29 27 33
50 51 52 51 52 53 42 34 30 33 34 35 34 34 33 33 38 36 38 36 39 36 33 40 35 38 42 45 47 45 47 40 36 33 36 43 36 41 40 34 29 31 33 35
50 49 49 49 48 48 41 34 32 36 31 33 36 38 35 32 32 36 39 35 38 36 32 36 37 42 41 43 44 45 43 32 37 39 42 43 41 41 41 38 38 30 36 39
50 49 48 48 47 47 38 33 33 38 37 36 35 36 33 33 34 34 32 34 38 40 36 39 36 39 40 38 42 41 43 32 35 30 39 40 36 40 41 41 41 41 42 42
50 49 49 48 47 46 36 39 42 40 35 34 34 33 35 33 36 37 42 40 37 36 39 45 48 49 47 45 42 40 34 34 29 28 38 36 28 37 41 43 45 44 37 46
47 49 48 47 47 45 43 40 43 38 31 35 33 36 37 34 36 34 40 45 41 41 49 47 46 44 42 42 42 45 36 34 33 29 31 19 40 46 44 41 44 47 46 48
47 47 47 47 47 47 43 43 42 39 32 35 34 35 34 38 41 39 41 43 47 50 47 38 32 32 33 36 39 39 42 36 29 25 27 34 39 43 42 39 38 47 45 47
47 47 48 47 48 47 45 42 45 43 35 34 39 35 38 36 37 38 37 44 49 48 42 35 27 25 33 29 31 42 37 38 33 29 22 20 39 45 48 45 30 48 47 46
48 47 48 48 48 48 46 42 45 44 35 38 41 36 38 45 42 38 38 37 39 46 35 30 30 30 38 30 30 29 30 29 26 28 26 33 44 48 47 27 34 48 49 49
48 48 47 47 47 47 43 41 46 45 38 38 44 46 42 44 45 38 40 38 36 38 33 33 30 32 34 34 39 34 31 27 27 28 24 21 47 45 34 45 50 49 50 50
48 48 47 47 46 45 44 38 47 49 43 38 46 46 49 51 52 45 43 43 41 41 37 37 35 31 33 33 28 42 32 36 34 32 33 46 48 48 52 52 50 50 50 51
48 48 47 47 47 47 46 44 47 46 39 39 44 42 47 52 52 56 42 46 46 44 49 39 38 32 40 31 33 37 41 45 35 36 42 45 48 52 53 53 51 53 53 52
48 48 47 47 47 46 47 44 46 47 42 33 37 48 46 51 53 51 52 47 47 47 50 42 40 37 43 37 40 38 42 43 38 38 43 47 49 51 52 52 53 52 53 52
48 48 47 48 48 49 49 47 45 49 46 35 38 44 46 49 51 49 50 49 47 45 41 39 38 46 40 42 40 37 45 41 36 34 46 45 46 51 52 49 49 51 50 50
48 48 48 48 48 50 48 34 49 49 49 40 33 44 43 46 48 47 47 48 47 46 42 42 46 45 41 33 34 44 47 48 48 43 49 48 49 51 52 49 50 50 50 50
48 48 47 48 48 50 41 41 49 50 54 41 33 35 42 45 38 38 45 46 42 43 42 39 43 43 40 35 31 43 47 48 48 49 47 43 47 44 49 46 46 48 50 51
47 47 47 47 46 46 43 48 48 53 47 44 33 32 35 45 37 33 41 40 42 40 41 41 40 43 39 30 41 44 44 44 44 43 43 42 44 45 45 48 49 47 47 48
46 45 45 41 38 37 39 47 49 53 47 36 39 33 28 41 35 35 39 43 33 42 36 38 40 36 30 37 41 41 39 38 39 40 40 42 42 44 47 47 47 43 41 38
47 44 38 32 38 47 49 44 37 40 42 43 37 42 32 39 34 31 32 39 37 28 36 40 33 35 44 46 45 41 37 41 40 37 40 40 41 43 44 39 38 36 35 36
42 36 33 39 46 45 40 31 33 35 33 41 40 40 34 41 34 33 38 32 34 27 34 32 32 32 36 39 38 36 36 38 37 36 36 36 36 37 37 34 34 34 34 33
44 41 43 44 40 37 32 29 31 33 33 38 37 38 40 38 42 36 34 31 32 25 36 29 28 33 35 36 35 35 35 35 34 35 34 35 34 35 34 34 34 33 33 33
50 44 37 37 33 26 26 22 28 30 35 35 36 33 38 37 41 34 33 27 28 38 27 29 36 33 34 36 35 35 35 34 33 33 33 33 33 33 33 32 32 33 32 32
42 36 25 30 26 31 34 36 36 38 38 37 39 34 37 37 35 34 27 32 34 25 24 28 34 34 34 35 35 36 34 34 34 33 32 31 32 31 32 32 32 32 31 31
36 37 27 28 34 35 33 36 37 37 41 38 35 34 37 33 29 32 31 25 24 30 29 36 36 36 35 35 35 34 33 32 32 33 31 31 31 31 31 31 32 32 31 31
39 36 30 31 31 30 30 32 35 39 39 40 40 33 29 28 32 27 27 27 27 33 38 36 37 35 35 35 35 34 33 33 33 33 32 32 31 31 31 31 31 31 31 31
35 31 33 32 32 31 32 36 38 42 39 34 38 29 30 35 30 29 35 31 35 34 34 37 38 35 34 34 34 33 34 33 33 33 33 32 32 32 32 31 31 33 33 31
MSLP
981.69 978.95 981.19 984.68 988.40 991.01 992.88 995.90 999.11 1000.29 1000.71 1002.59 1003.56 1004.04 1004.95 1006.01 1006.50 1006.92 1007.05 1007.19 1007.19 1007.61 1008.08 1008.81 1009.26 1009.50 1009.74 1010.81 1011.44 1011.41 1012.29 1012.16 1012.04 1011.71 1012.03 1012.26 1012.02 1012.37 1013.47 1013.76 1013.82 1013.32 1012.29 1008.67
979.80 978.55 981.37 984.17 987.42 988.99 991.64 996.48 999.04 1000.69 1001.17 1001.69 1002.74 1004.15 1005.40 1005.85 1006.58 1006.81 1007.51 1007.71 1007.69 1008.25 1008.84 1009.81 1010.12 1010.41 1011.29 1011.44 1011.48 1012.08 1012.50 1012.72 1012.56 1012.56 1013.39 1013.14 1012.90 1013.51 1014.13 1014.50 1014.78 1013.59 1012.61 1009.64
985.13 983.21 983.92 986.39 989.03 989.75 991.28 995.67 998.61 1001.20 1002.41 1002.35 1001.91 1002.99 1004.66 1005.83 1006.88 1007.44 1007.40 1007.94 1008.21 1008.58 1009.54 1009.86 1010.22 1010.55 1011.38 1011.76 1012.04 1012.63 1012.84 1012.83 1012.61 1012.15 1012.09 1012.60 1012.90 1013.17 1013.84 1014.18 1013.92 1012.67 1011.15 1010.57
987.44 987.92 987.96 989.10 990.58 991.03 991.79 994.93 997.22 998.44 1000.48 1001.68 1001.65 1002.26 1004.03 1004.89 1006.63 1007.32 1007.49 1008.12 1008.27 1008.44 1009.43 1010.13 1010.21 1010.58 1011.46 1012.30 1012.84 1013.11 1013.14 1013.22 1012.99 1013.02 1012.85 1012.63 1012.37 1012.57 1012.89 1012.71 1012.29 1012.32 1010.80 1010.21
989.48 990.11 989.43 990.86 991.40 991.69 993.04 994.97 996.48 997.78 999.67 1000.89 1001.59 1002.55 1003.77 1004.49 1006.17 1006.82 1007.32 1007.31 1008.16 1008.63 1009.04 1008.99 1009.72 1010.24 1011.02 1011.69 1013.02 1013.19 1013.33 1013.42 1013.79 1013.24 1012.98 1012.49 1011.99 1012.06 1012.02 1011.49 1011.18 1010.91 1010.43 1009.01
991.23 992.06 992.70 993.33 992.98 993.16 994.14 995.58 996.56 997.20 999.86 1000.78 1001.49 1002.32 1003.14 1004.54 1005.59 1007.15 1007.09 1007.41 1008.15 1009.02 1009.65 1009.71 1009.70 1010.51 1011.01 1011.57 1012.24 1012.74 1013.67 1013.68 1014.30 1013.12 1012.64 1012.61 1011.64 1010.83 1010.41 1009.96 1010.06 1010.06 1009.52 1008.72
993.40 993.52 993.99 994.25 994.28 994.30 995.35 996.60 996.64 997.80 999.90 1000.69 1001.32 1002.52 1003.05 1004.76 1005.56 1006.32 1007.27 1007.49 1007.78 1009.63 1010.51 1010.81 1011.11 1011.84 1012.02 1012.26 1012.65 1012.62 1013.04 1013.73 1014.12 1013.63 1013.79 1012.13 1010.25 1010.32 1010.41 1009.96 1009.59 1009.79 1009.10 1009.16
994.76 994.85 995.04 995.20 995.54 996.18 996.45 997.36 997.90 998.80 1000.16 1001.23 1002.46 1003.00 1004.03 1005.23 1005.91 1006.50 1006.99 1007.89 1007.96 1009.37 1009.92 1010.63 1011.40 1011.81 1012.14 1012.27 1012.49 1013.00 1013.50 1013.61 1013.75 1013.63 1012.97 1011.21 1010.14 1009.71 1009.89 1009.60 1009.10 1009.54 1009.05 1009.19
995.97 996.05 996.22 996.58 996.94 997.35 997.65 998.91 999.13 999.38 1000.71 1002.27 1002.59 1003.44 1003.97 1004.61 1005.41 1006.57 1007.79 1008.81 1008.92 1009.27 1009.47 1010.14 1010.00 1010.05 1010.63 1011.46 1012.16 1013.09 1013.84 1013.79 1013.73 1013.64 1012.87 1010.69 1008.90 1009.41 1010.36 1010.54 1008.97 1008.37 1008.90 1008.97
996.51 996.99 997.13 997.47 997.74 997.98 998.51 999.76 1000.03 1000.09 1001.72 1003.05 1002.99 1003.09 1003.76 1004.23 1004.61 1005.88 1007.94 1008.91 1009.60 1009.41 1009.22 1009.63 1009.65 1009.83 1010.04 1010.11 1010.89 1012.50 1012.97 1013.43 1013.10 1012.88 1012.07 1010.03 1009.26 1009.53 1010.57 1010.01 1008.40 1008.47 1008.73 1008.71
996.80 997.30 997.79 998.23 998.69 999.13 999.48 1000.40 1000.54 1000.33 1001.91 1003.51 1003.57 1003.85 1004.00 1004.18 1004.39 1005.34 1007.34 1008.69 1009.40 1009.03 1008.98 1009.06 1009.69 1009.51 1010.03 1010.33 1010.06 1010.81 1011.18 1011.80 1012.16 1012.35 1011.61 1010.26 1009.34 1009.63 1009.54 1007.78 1007.71 1008.20 1008.26 1008.23
997.20 997.81 998.35 998.94 999.40 999.81 1000.04 1000.98 1001.12 1001.08 1001.96 1004.29 1004.76 1004.90 1004.74 1004.40 1004.31 1005.15 1006.69 1006.53 1007.50 1008.17 1008.31 1008.82 1009.48 1009.87 1010.32 1009.68 1009.57 1010.03 1010.18 1010.10 1010.32 1011.21 1009.49 1009.05 1008.84 1008.23 1007.85 1007.94 1007.58 1007.71 1007.63 1007.62
997.63 998.41 999.15 999.69 1000.22 1000.56 1000.76 1001.45 1001.86 1001.96 1003.47 1004.95 1004.97 1005.37 1005.72 1005.57 1005.66 1005.62 1005.92 1006.67 1007.21 1007.71 1007.87 1008.75 1009.23 1009.05 1009.15 1009.02 1009.02 1009.07 1009.51 1010.00 1010.10 1010.39 1007.84 1007.97 1007.71 1007.64 1007.55 1007.56 1007.33 1007.13 1007.10 1007.12
997.88 998.86 999.75 1000.56 1001.20 1001.65 1001.99 1002.02 1002.48 1002.59 1003.52 1004.70 1006.03 1006.22 1006.27 1006.50 1006.22 1006.33 1006.03 1006.58 1007.59 1007.89 1007.96 1008.25 1008.43 1008.45 1009.05 1008.68 1008.53 1008.76 1009.01 1009.28 1009.31 1008.47 1007.47 1007.28 1006.99 1006.89 1006.87 1006.72 1006.85 1006.70 1006.63 1006.66
998.06 998.96 999.99 1000.81 1001.40 1001.94 1002.47 1003.03 1003.50 1003.12 1003.16 1004.25 1005.66 1006.41 1006.90 1006.73 1006.65 1006.66 1006.69 1006.79 1007.30 1007.66 1008.10 1008.30 1008.41 1008.53 1009.31 1008.87 1009.11 1008.45 1008.29 1007.94 1008.05 1006.80 1006.87 1006.78 1006.07 1006.51 1006.75 1006.65 1006.44 1006.39 1006.38 1006.20
998.45 999.38 1000.45 1001.30 1001.94 1002.22 1002.68 1003.84 1003.50 1003.56 1003.54 1004.01 1005.43 1007.06 1007.29 1007.36 1007.38 1007.32 1007.16 1007.41 1007.97 1008.15 1008.16 1008.35 1008.72 1009.08 1009.47 1008.60 1007.51 1007.31 1007.23 1007.41 1007.54 1006.75 1007.04 1006.92 1006.50 1006.35 1006.45 1006.26 1006.09 1006.05 1006.04 1006.03
999.10 1000.08 1001.22 1002.04 1002.44 1002.71 1003.44 1003.91 1003.74 1003.98 1003.90 1004.51 1005.91 1006.61 1007.74 1007.84 1008.53 1008.65 1008.35 1008.48 1008.76 1008.73 1008.69 1008.72 1008.81 1009.28 1009.48 1008.24 1006.84 1006.99 1006.94 1007.19 1007.22 1007.17 1007.09 1006.36 1006.42 1005.97 1006.04 1006.22 1006.15 1006.21 1005.89 1005.78
1000.03 1001.16 1002.15 1003.02 1003.58 1003.83 1004.20 1004.58 1004.64 1004.33 1004.36 1004.70 1005.41 1006.57 1007.28 1007.68 1008.16 1008.90 1009.27 1008.92 1009.19 1009.04 1008.54 1009.22 1009.03 1008.85 1009.00 1007.60 1006.73 1006.95 1007.45 1007.59 1007.47 1007.28 1007.19 1006.68 1006.42 1006.23 1005.98 1005.83 1005.58 1005.56 1005.63 1005.70
1001.30 1002.37 1003.33 1004.26 1005.03 1005.05 1005.40 1005.14 1004.79 1004.70 1004.93 1004.96 1005.33 1005.67 1006.81 1008.01 1008.46 1008.94 1009.01 1008.70 1008.59 1008.90 1008.68 1008.72 1008.97 1008.28 1007.59 1006.88 1006.97 1007.44 1007.91 1007.85 1007.60 1007.43 1007.17 1006.61 1006.27 1005.88 1005.58 1005.62 1005.59 1005.87 1006.20 1006.67
1002.15 1003.01 1004.08 1005.08 1005.36 1005.32 1005.41 1005.76 1005.63 1005.36 1005.49 1005.60 1005.40 1005.81 1006.53 1007.26 1007.99 1008.66 1008.93 1008.64 1008.11 1008.70 1008.48 1008.80 1008.64 1007.30 1006.63 1006.68 1007.14 1007.79 1008.23 1007.91 1007.81 1007.46 1006.84 1006.83 1006.47 1006.02 1005.91 1006.58 1006.96 1007.23 1007.27 1007.08
1002.80 1003.81 1004.75 1005.84 1005.84 1005.54 1005.69 1006.15 1006.03 1006.09 1005.70 1005.50 1005.69 1005.90 1006.37 1007.40 1007.20 1007.73 1008.57 1008.60 1008.65 1008.42 1008.07 1008.34 1007.62 1006.87 1006.98 1007.64 1007.90 1008.39 1008.57 1008.39 1008.28 1008.23 1008.08 1007.88 1007.45 1007.21 1007.17 1007.50 1007.68 1007.72 1007.68 1007.67
1003.08 1004.12 1005.52 1006.01 1005.81 1005.68 1005.77 1006.04 1006.32 1005.79 1005.03 1005.56 1005.71 1006.20 1006.38 1007.43 1007.53 1007.48 1008.74 1008.39 1008.73 1008.03 1008.49 1008.26 1007.08 1006.90 1007.66 1007.99 1008.41 1008.71 1008.85 1008.88 1008.89 1008.82 1008.65 1008.44 1008.32 1008.17 1008.09 1008.09 1008.22 1008.33 1008.40 1008.31
1003.59 1004.13 1005.07 1005.23 1005.88 1005.55 1005.35 1005.52 1005.41 1005.11 1005.32 1005.80 1005.99 1006.50 1006.60 1007.62 1007.44 1007.81 1008.10 1008.16 1008.00 1008.22 1008.04 1006.93 1006.14 1007.25 1007.92 1008.28 1008.71 1008.96 1009.25 1009.43 1009.37 1009.31 1009.31 1009.26 1009.12 1009.01 1008.80 1008.83 1008.88 1008.85 1008.78 1008.70
1003.73 1004.11 1005.00 1005.24 1005.49 1005.26 1005.01 1004.80 1004.79 1005.14 1005.16 1005.46 1005.66 1006.48 1006.52 1007.15 1007.13 1007.62 1007.78 1007.86 1007.85 1007.37 1006.59 1005.71 1006.35 1007.41 1008.05 1008.66 1009.05 1009.09 1009.44 1009.62 1009.69 1009.79 1009.82 1009.77 1009.65 1009.60 1009.62 1009.54 1009.39 1009.28 1009.20 1009.28
1004.23 1004.46 1004.87 1005.32 1005.55 1005.67 1005.76 1005.60 1005.41 1005.56 1005.41 1005.67 1006.16 1006.70 1006.83 1007.14 1007.44 1007.53 1007.43 1007.49 1006.64 1005.72 1005.11 1005.64 1006.61 1007.49 1008.19 1008.70 1009.10 1009.32 1009.57 1009.78 1009.90 1009.97 1010.01 1009.99 1009.97 1009.95 1009.99 1009.99 1009.92 1009.79 1009.65 1009.64
1004.63 1004.89 1005.27 1005.75 1005.78 1005.94 1006.10 1005.91 1005.57 1005.75 1005.58 1005.64 1005.59 1005.90 1006.28 1006.40 1006.39 1006.75 1006.29 1005.94 1005.13 1004.97 1005.28 1006.10 1006.80 1007.61 1008.22 1008.69 1008.99 1009.29 1009.55 1009.69 1009.85 1009.99 1010.05 1010.10 1010.12 1010.09 1010.16 1010.22 1010.17 1010.08 1010.14 1010.03
1005.02 1005.33 1005.71 1005.85 1005.98 1005.96 1005.97 1005.85 1005.63 1005.78 1005.47 1004.89 1004.91 1005.12 1005.15 1005.71 1005.49 1005.31 1005.19 1004.98 1005.01 1005.50 1006.03 1006.43 1006.80 1007.52 1008.20 1008.69 1008.91 1009.13 1009.31 1009.46 1009.68 1009.87 1010.01 1010.06 1010.10 1010.16 1010.17 1010.11 1010.23 1010.18 1010.13 1010.06
Wind_Speed
46 29 40 44 47 50 28 8 7 10 16 14 4 6 10 8 14 7 6 7 12 16 13 8 6 8 6 8 7 4 3 3 5 5 3 7 9 6 2 6 6 4 4 17
25 38 44 50 53 47 13 7 6 3 13 8 11 9 8 5 6 7 4 5 4 8 9 8 9 12 5 12 6 6 6 4 4 11 4 5 5 7 5 3 0 12 14 11
23 29 44 42 31 17 9 7 9 4 3 1 13 18 11 10 9 7 9 10 15 13 8 8 12 10 7 7 6 3 7 6 8 9 7 3 9 9 12 8 7 12 17 21
17 16 22 26 23 17 7 3 6 5 12 9 15 12 8 19 8 5 7 7 8 13 9 11 10 15 13 8 7 8 6 7 10 14 13 12 16 16 13 18 19 18 22 26
22 17 10 16 20 13 8 6 7 3 13 18 19 10 12 21 11 6 6 10 18 10 11 7 17 14 11 9 12 10 7 4 5 9 13 15 17 16 20 20 20 22 24 28
23 21 24 18 18 10 6 4 3 5 11 12 11 6 11 17 13 7 10 19 13 10 10 10 11 8 9 8 12 13 8 5 4 10 6 6 12 18 21 17 17 16 19 22
20 24 22 22 22 15 4 4 3 6 8 8 7 17 22 21 11 12 13 17 12 8 16 16 13 9 7 7 8 9 8 10 5 3 4 10 7 3 4 11 15 16 19 18
15 17 22 22 17 15 6 4 4 4 7 11 17 20 19 19 17 18 17 8 10 17 14 8 7 4 4 8 9 10 9 9 4 5 9 13 16 14 13 11 15 16 17 14
11 13 18 20 19 14 6 7 3 5 8 3 22 20 20 18 17 16 10 9 16 9 5 4 5 5 6 7 7 9 10 8 7 7 6 8 3 6 2 3 14 2 4 10
14 13 14 17 14 14 6 6 7 5 6 6 14 8 14 11 11 9 12 9 6 4 3 3 3 5 3 8 10 10 10 8 14 11 10 11 9 10 6 11 6 4 12 16
14 16 16 17 19 14 7 5 7 4 5 7 6 6 11 12 11 12 18 8 2 6 6 4 3 3 5 5 7 11 11 8 6 8 12 17 9 8 14 11 7 13 16 17
14 17 22 22 19 17 8 5 4 8 7 6 5 9 9 2 4 11 15 1 14 6 6 2 4 4 5 6 6 10 7 7 4 7 9 11 8 14 11 14 16 19 18 16
18 21 24 22 20 15 9 6 4 6 5 6 6 7 5 7 7 7 8 4 6 6 3 5 3 4 6 6 7 8 8 7 7 10 19 23 23 21 20 20 21 19 16 16
20 23 25 23 21 19 9 5 3 5 5 5 6 2 5 5 7 8 5 12 7 8 3 3 3 2 5 5 6 8 7 6 10 18 23 22 23 21 21 20 18 16 17 18
21 24 26 23 20 20 10 5 4 4 3 4 6 5 5 4 7 10 11 11 9 5 4 2 3 1 3 6 5 10 12 17 13 15 17 16 20 17 17 19 21 20 19 21
22 24 26 23 20 15 7 5 4 5 3 5 5 3 5 7 7 9 10 8 4 3 3 3 2 1 4 6 8 7 10 11 14 19 20 21 23 22 22 22 22 20 20 18
23 25 27 22 16 6 4 3 3 2 1 4 5 6 4 8 5 3 4 4 3 1 3 3 5 6 4 6 13 14 16 17 16 18 21 25 23 17 17 16 16 17 18 16
26 27 24 20 16 6 3 5 5 0 4 3 3 5 5 6 4 4 2 4 4 3 3 1 4 2 4 6 9 7 6 11 15 15 15 17 15 15 15 15 13 14 12 10
32 30 24 8 5 2 3 5 8 5 5 3 1 6 5 4 3 3 2 2 3 3 4 3 3 5 8 9 8 8 8 9 13 10 7 9 10 11 9 8 7 6 5 5
24 7 3 3 2 17 5 6 4 4 3 2 2 1 5 5 3 3 4 1 2 2 4 4 5 8 13 9 6 5 6 9 6 8 7 7 9 7 2 2 4 2 3 4
3 4 4 6 1 1 2 3 1 1 3 3 2 1 6 2 4 4 0 3 3 3 4 4 3 5 3 3 5 4 6 7 5 5 3 4 5 4 2 4 3 3 3 3
7 10 6 3 1 2 3 3 3 4 3 4 5 4 3 3 2 3 4 3 3 3 5 4 4 3 1 3 3 4 5 5 5 6 6 6 6 5 5 5 5 5 4 4
5 3 4 3 1 3 4 6 3 3 5 5 6 5 3 4 3 4 3 5 3 4 3 4 2 6 3 2 2 5 6 5 6 7 6 6 7 7 7 7 6 4 6 6
1 2 3 2 3 3 1 1 3 4 4 7 8 4 2 1 3 2 4 3 3 4 5 4 4 6 5 3 3 4 6 5 6 6 5 5 6 7 6 6 5 5 7 6
2 1 1 1 2 2 1 1 2 2 6 8 6 4 2 2 3 3 3 5 6 5 2 3 6 7 6 5 4 5 4 3 3 4 4 4 4 5 6 6 5 5 6 6
1 2 2 2 1 2 2 2 2 4 7 4 2 4 4 4 3 5 7 4 5 2 2 6 8 8 7 6 4 4 3 2 3 2 3 3 3 4 4 4 4 5 5 5
1 1 1 1 0 1 2 2 2 4 7 4 2 5 4 4 4 5 5 4 2 3 4 5 7 8 8 6 5 5 6 5 4 4 3 2 1 2 3 1 1 2 3 3
Wind_Direction
303 199 170 165 156 152 141 121 116 165 151 140 184 133 132 111 148 144 120 115 112 154 143 138 132 142 113 154 151 126 99 111 194 232 30 291 255 230 214 225 195 233 289 265
346 150 145 147 152 158 123 96 104 142 159 166 154 131 126 107 141 124 123 109 126 134 133 117 134 143 164 159 157 153 166 150 188 152 169 196 201 196 160 131 145 244 254 264
39 82 120 126 136 138 88 119 126 102 99 254 133 127 129 118 108 85 96 112 115 110 123 128 159 135 145 162 155 131 166 191 235 267 358 253 227 213 179 195 243 260 253 277
89 78 88 85 76 62 89 77 115 134 164 162 139 117 125 124 129 118 128 123 140 138 135 139 159 143 131 159 163 168 170 218 230 257 270 265 265 263 250 246 242 251 276 279
119 113 86 85 57 49 77 108 135 85 128 131 121 132 148 129 111 136 128 133 149 142 155 167 167 156 163 168 179 182 180 222 267 262 265 258 259 262 256 255 263 265 267 270
94 115 106 89 51 51 65 41 71 100 134 142 135 144 133 132 122 52 138 147 137 142 128 108 130 127 147 148 167 184 168 196 188 262 251 271 271 252 257 264 266 275 276 292
45 97 84 75 67 63 92 51 68 101 104 119 107 135 125 134 121 121 144 152 136 107 114 98 97 100 118 170 194 211 185 196 193 252 209 240 270 183 275 270 275 281 277 288
44 68 96 80 83 71 70 38 65 73 98 107 121 125 124 121 118 132 132 112 111 147 139 124 129 129 156 186 178 189 196 179 175 227 231 276 281 250 244 253 284 289 277 281
95 75 97 96 102 86 76 53 359 78 107 114 130 129 140 140 123 121 102 100 143 154 139 156 170 160 155 153 132 215 190 228 218 183 240 248 323 127 167 282 275 242 339 290
131 116 108 110 106 78 86 67 23 94 100 137 137 138 142 150 139 119 131 131 155 217 138 145 155 146 150 160 171 173 181 211 226 228 243 271 268 262 166 233 279 327 309 306
147 132 117 116 110 90 64 66 26 98 86 91 151 135 141 143 153 154 139 138 171 180 176 166 140 172 174 190 174 177 180 184 192 228 248 260 238 224 225 257 303 307 300 306
149 134 119 111 109 100 81 69 37 48 70 87 62 71 43 32 131 127 174 9 154 155 148 182 130 160 173 186 204 201 222 206 220 219 229 233 243 241 243 255 275 295 300 308
151 145 135 121 114 80 91 109 76 79 95 84 121 95 60 83 95 133 152 140 119 147 52 143 132 171 186 179 223 214 212 241 233 240 247 245 256 264 266 271 276 284 297 302
150 148 141 135 128 120 107 86 42 86 107 105 99 99 92 109 97 77 80 116 101 119 135 107 143 180 212 228 249 222 230 224 238 251 266 277 272 272 276 277 281 287 292 295
147 145 143 139 129 129 111 90 34 32 18 104 107 117 42 116 110 97 117 124 125 143 132 130 199 236 196 226 259 247 244 252 241 250 261 282 284 293 298 291 290 290 287 291
141 144 146 132 127 125 100 49 344 16 6 98 113 102 115 126 104 112 114 108 97 112 142 189 215 32 246 247 254 274 270 258 254 266 280 281 284 286 285 287 284 284 283 284
137 139 136 134 128 114 41 48 114 158 19 100 127 123 96 140 79 39 110 93 80 104 138 200 249 212 216 258 270 276 278 279 283 279 280 276 273 277 286 297 293 282 276 279
127 122 118 97 82 67 47 51 113 118 96 62 118 102 137 180 148 130 205 145 174 170 172 138 233 211 234 262 272 289 293 300 289 287 284 284 296 284 277 263 264 272 275 283
109 105 102 70 48 50 88 46 53 50 33 89 127 161 136 144 86 94 115 195 163 95 215 227 201 227 228 247 284 297 302 298 299 308 285 264 266 274 282 287 281 283 313 293
107 74 80 90 91 118 98 17 34 18 22 47 99 113 121 171 161 108 127 218 183 191 205 132 232 255 258 287 309 318 312 310 301 311 321 336 326 330 316 70 29 13 304 331
48 62 52 100 141 127 49 94 126 146 186 172 103 153 134 149 178 119 206 163 164 221 142 228 226 240 147 2 347 351 312 317 344 342 0 341 315 313 67 97 85 65 40 18
98 110 114 157 167 126 113 106 132 227 188 144 168 128 89 111 246 136 170 162 199 231 137 237 250 107 88 27 14 7 18 31 48 38 36 45 52 66 79 71 59 51 38 22
106 106 116 205 36 123 186 170 184 192 161 169 164 132 115 159 195 82 143 178 202 127 222 237 228 114 104 53 94 86 77 74 63 59 49 51 60 55 55 58 40 44 46 28
64 113 113 265 158 218 189 235 75 82 132 154 158 119 117 104 152 145 178 170 202 227 230 214 118 134 133 121 114 110 78 62 67 63 52 53 58 60 52 46 32 39 42 31
68 285 94 138 60 59 20 27 145 98 148 142 129 112 128 131 134 195 177 185 228 231 193 95 128 142 148 151 132 109 94 85 75 64 59 57 58 64 63 48 45 48 42 31
348 80 135 105 203 167 190 205 135 149 156 156 186 144 169 177 164 186 208 215 227 169 96 120 140 148 149 149 133 123 131 133 125 101 80 76 70 71 69 57 50 46 28 18
257 153 91 354 297 18 114 178 128 157 180 185 172 187 181 126 208 213 192 229 57 126 129 143 145 154 146 155 167 187 187 182 176 170 175 175 175 173 195 155 84 25 14 8